Flag for Germany Weather past 2 weeks in Esslingen, Baden-Württemberg, Germany

Now
66 °F

Broken clouds.


Feels Like: 66 °F
Forecast: 46 / 68 °F
Wind: 3 mph from North

Location: Stuttgart-Echterdingen

Current Time: Sep 3, 2015 at 1:30:31 PM

Latest Report: Sep 3, 2015 at 12:50 PM


Visibility: N/A

Pressure: 29.98 "Hg

Humidity: 60%

Dew point: 52 °F

Location of EsslingenLocation

Historic Weather in Esslingen — Graph

°F

Esslingen temperature yesterday

Maximum temperature yesterday: 68 °F (at 2:50 PM)
Minimum temperature yesterday: 54 °F (at 3:50 AM)
Average temperature yesterday: 61 °F

Past Weeks' High & Low Weather Summary

 TemperatureHumidityPressure
High91 °F (Aug 30, 2:20 PM)100% (Aug 20, 4:50 AM)30.27 "Hg (Aug 20, 4:50 AM)
Low48 °F (Aug 26, 4:50 AM)20% (Aug 31, 5:20 PM)29.71 "Hg (Aug 24, 1:50 PM)
Average68 °F68%30.03 "Hg
* Reported Aug 19 12:20 PM — Sep 3 12:20 PM, Esslingen, Weather by CustomWeather, © 2015

Note: Actual official high and low records may vary slightly from our data, if they occured in-between our weather recording intervals... More about our weather records

Advertising

Esslingen weather history for previous 24 hours

 ConditionsComfort  
Time TempWeatherWind HumidityBarometerVisibility
12:20 PM
Thu, Sep 3
64 °FPartly sunny.2 mph64%29.98 "HgN/A
11:50 AM64 °FPartly sunny.2 mph68%29.98 "HgN/A
11:20 AM63 °FPartly sunny.3 mph68%29.98 "HgN/A
10:50 AM61 °FPartly sunny.3 mph72%30.01 "HgN/A
10:20 AM59 °FSprinkles. Broken clouds.3 mph82%30.01 "HgN/A
9:50 AM57 °FPartly sunny.2 mph88%30.01 "HgN/A
9:20 AM57 °FPartly sunny.2 mph88%29.98 "HgN/A
8:50 AM57 °FPartly sunny.3 mph88%30.01 "HgN/A
8:20 AM57 °FSprinkles. Broken clouds.5 mph88%29.98 "HgN/A
7:50 AM57 °FPartly sunny.5 mph88%29.98 "HgN/A
7:20 AM57 °FPassing clouds.3 mph94%29.98 "HgN/A
6:50 AM57 °FPartly cloudy.3 mph94%29.98 "HgN/A
6:20 AM57 °FSprinkles. Partly cloudy.1 mph94%29.98 "HgN/A
5:20 AM57 °FPassing clouds.3 mph94%29.98 "HgN/A
4:50 AM57 °FClear.2 mph94%29.98 "Hg10 mi
4:20 AM57 °FPassing clouds.No wind94%29.98 "HgN/A
3:50 AM59 °FSprinkles. Passing clouds.3 mph88%29.98 "HgN/A
3:20 AM59 °FPartly cloudy.3 mph88%29.98 "HgN/A
2:50 AM59 °FPartly cloudy.1 mph82%29.98 "HgN/A
2:20 AM59 °FClear.1 mph88%29.98 "Hg10 mi
1:50 AM59 °FPartly cloudy.1 mph88%29.98 "HgN/A
1:20 AM61 °FSprinkles. Passing clouds.2 mph77%29.98 "HgN/A
12:50 AM61 °FPassing clouds.2 mph77%30.01 "HgN/A
12:20 AM61 °FClear.2 mph77%29.98 "Hg10 mi
11:50 PM
Wed, Sep 2
61 °FPassing clouds.3 mph77%30.01 "HgN/A
11:20 PM61 °FClear.2 mph72%30.01 "Hg10 mi
10:50 PM63 °FPassing clouds.1 mph68%30.01 "HgN/A
10:20 PM63 °FPassing clouds.2 mph73%30.01 "HgN/A
9:50 PM63 °FClear.1 mph68%30.01 "Hg10 mi
9:20 PM64 °FPassing clouds.3 mph60%30.01 "HgN/A
8:50 PM64 °FPassing clouds.6 mph60%30.01 "HgN/A
8:20 PM64 °FSunny.5 mph60%30.01 "Hg10 mi
7:50 PM66 °FPassing clouds.6 mph56%30.01 "HgN/A
7:20 PM66 °FPassing clouds.6 mph56%30.01 "HgN/A
6:50 PM66 °FPassing clouds.6 mph56%30.01 "HgN/A
6:20 PM68 °FPassing clouds.7 mph53%30.01 "HgN/A
5:20 PM68 °FScattered clouds.6 mph49%30.01 "HgN/A
4:50 PM68 °FScattered clouds.8 mph56%30.01 "HgN/A
4:20 PM68 °FScattered clouds.7 mph56%30.01 "HgN/A
3:50 PM68 °FPassing clouds.3 mph49%30.01 "HgN/A
3:20 PM68 °FPassing clouds.5 mph56%30.01 "HgN/A
2:50 PM68 °FScattered clouds.3 mph56%30.01 "HgN/A
2:20 PM66 °FScattered clouds.6 mph60%30.04 "HgN/A
1:50 PM66 °FPartly sunny.6 mph64%30.04 "HgN/A
1:20 PM64 °FScattered clouds.6 mph68%30.04 "HgN/A
Weather by CustomWeather, © 2015

See weather overviewHow to use our weather pages